Flag for Slovenia Weather past 2 weeks in Ljubljana, Slovenia

Now
62 °F

Scattered clouds.


Feels Like: 62 °F
Forecast: 52 / 66 °F
Wind: 3 mph from West

Location: Ljubljana / Bezigrad

Current Time: Apr 26, 2015 at 7:41:44 PM

Latest Report: Apr 26, 2015 at 7:00 PM


Visibility: 22 mi

Pressure: 29.84 "Hg

Humidity: 59%

Dew point: 48 °F

Location of LjubljanaLocation

Historic Weather in Ljubljana — Graph

°F

Ljubljana temperature yesterday

Maximum temperature yesterday: 65 °F (at 5:00 PM)
Minimum temperature yesterday: 44 °F (at 6:00 AM)
Average temperature yesterday: 55 °F

Past Weeks' High & Low Weather Summary

 TemperatureHumidityPressure
High76 °F (Apr 22, 5:00 PM)100% (Apr 19, 5:00 AM)30.44 "Hg (Apr 19, 5:00 AM)
Low34 °F (Apr 19, 7:00 AM)16% (Apr 21, 5:00 PM)29.84 "Hg (Apr 26, 6:00 PM)
Average56 °F57%30.12 "Hg
* Reported Apr 11 6:00 PM — Apr 26 6:00 PM, Ljubljana, Weather by CustomWeather, © 2015

Note: Actual official high and low records may vary slightly from our data, if they occured in-between our weather recording intervals... More about our weather records

Advertising

Ljubljana weather history for previous 24 hours

 ConditionsComfort  
Time TempWeatherWind HumidityBarometerVisibility
6:00 PM
Sun, Apr 26
64 °FScattered clouds.5 mph60%29.84 "Hg22 mi
5:00 PM64 °FScattered clouds.5 mph60%29.85 "Hg22 mi
4:00 PM65 °FScattered clouds.6 mph55%29.87 "Hg19 mi
3:00 PM65 °FScattered clouds.5 mph55%29.88 "Hg19 mi
2:00 PM65 °FScattered clouds.5 mph53%29.89 "Hg25 mi
1:00 PM66 °FPartly sunny.5 mph51%29.90 "Hg25 mi
12:00 PM65 °FScattered clouds.6 mph51%29.91 "Hg25 mi
11:00 AM63 °FScattered clouds.7 mph56%29.91 "Hg25 mi
10:00 AM62 °FScattered clouds.5 mph59%29.91 "Hg31 mi
9:00 AM58 °FPassing clouds.5 mph66%29.92 "Hg31 mi
8:00 AM56 °FPassing clouds.1 mph69%29.93 "Hg31 mi
7:00 AM52 °FPassing clouds.2 mph75%29.94 "Hg31 mi
6:00 AM51 °FPassing clouds.2 mph77%29.93 "Hg31 mi
5:00 AM52 °FPassing clouds.2 mph76%29.94 "Hg19 mi
4:00 AM52 °FCool.2 mph77%29.95 "HgN/A
3:00 AM51 °FCool.1 mph79%29.96 "HgN/A
2:00 AM53 °FCool.2 mph77%29.96 "HgN/A
1:00 AM55 °FCool.2 mph71%29.97 "HgN/A
12:00 AM56 °FCool.2 mph67%29.97 "HgN/A
10:00 PM
Sat, Apr 25
58 °FPassing clouds.5 mph53%29.97 "Hg19 mi
9:00 PM59 °FOvercast.3 mph62%29.96 "Hg19 mi
8:00 PM60 °FPartly sunny.2 mph59%29.94 "Hg19 mi
7:00 PM62 °FOvercast.3 mph52%29.94 "Hg19 mi
Weather by CustomWeather, © 2015

See weather overviewHow to use our weather pages